Starlink 4049

operational
NORAD ID: 52840 Int'l Des: 2022-062 Owner: SPXS Country: US Constellation: starlink
LEOCIRCULAR

Über Starlink 4049

Beschreibung wird geladen...

Live-Position

3D-Globus wird geladen...

Nächste Überflüge

Höhenverlauf

Altitude vs Time

uPlot chart will show altitude changes over time

Zweizeiliger Elementsatz

1 52840U 22062L 25305.57927420 -.00001848 00000-0 -98096-4 0 9991
2 52840 53.2173 249.3474 0001521 82.3794 277.7371 15.08829544186440
Epoch: 1. Nov. 2025 • Age: 9 hours

Aktueller Status

Höhe 540.1 km
Geschwindigkeit 7.60 km/s
Subsatellitenpunkt 22.65°N, 30.42°E
Startdatum 17. Juni 2022
Alter 3.3 years
Typ internet

Technische Details

Klassifizierung Payload
Masse 297.00 kg
Trockenmasse 275.00 kg
Gesamtmasse 297.00 kg
Länge 0.20 m
Durchmesser 2.80 m
Spannweite 9.00 m
Form Box + pan
Hersteller SPXS
Bus-Typ Starlink
Phasenstatus In Orbit
Besitzer/Staat SPXS/US

Große Konstellationen

Loading constellations...